Home > Weather > Neumünster > Past weeks

Flag for Germany Past Weather in Neumünster, Schleswig-Holstein, Germany — Yesterday and Last 2 Weeks

Now
79 °F

Passing clouds.


Feels Like: 80 °F
Forecast: 60 / 81 °F
Wind: 1 mph from Southwest

Location: Itzehoe

Current Time: Jul 23, 2016 at 9:18:25 PM

Latest Report: Jul 23, 2016 at 7:00 PM


Visibility: 44 mi

Pressure: 30.08 "Hg

Humidity: 44%

Dew Point: 55 °F

Location of NeumünsterLocation

Past Weather in Neumünster — Graph

°F

Neumünster Temperature Yesterday

Maximum temperature yesterday: 79 °F (at 4:00 PM)
Minimum temperature yesterday: 62 °F (at 6:00 AM)
Average temperature yesterday: 70 °F

High & Low Weather Summary for the Past Weeks

 TemperatureHumidityPressure
High82 °F (Jul 20, 6:00 PM)98% (Jul 17, 6:00 AM)30.21 "Hg (Jul 17, 6:00 AM)
Low47 °F (Jul 14, 6:00 AM)38% (Jul 23, 4:00 PM)29.69 "Hg (Jul 11, 6:00 AM)
Average64 °F78%29.99 "Hg
* Reported Jul 8 7:00 PM — Jul 23 7:00 PM, Neumünster, Weather by CustomWeather, © 2016

Note: Actual official high and low records may vary slightly from our data, if they occured in-between our weather recording intervals... More about our weather records

Advertising

Neumünster Weather History for the Previous 24 Hours

Scroll right to see more
 ConditionsComfort  
Time TempWeatherWind HumidityBarometerVisibility
7:00 PM
Sat, Jul 23
79 °FPassing clouds.1 mph44%30.08 "Hg43 mi
6:00 PM80 °FSunny.1 mph46%30.09 "Hg43 mi
4:00 PM80 °FSunny.2 mph38%30.10 "Hg19 mi
3:00 PM80 °FSunny.3 mph41%30.11 "Hg13 mi
1:00 PM78 °FPassing clouds.3 mph42%30.11 "Hg25 mi
12:00 PM76 °FSunny.3 mph47%30.11 "Hg22 mi
10:00 AM70 °FSunny.2 mph63%30.09 "Hg31 mi
9:00 AM69 °FSunny.2 mph68%30.10 "Hg13 mi
7:00 AM62 °FPassing clouds.1 mph84%30.08 "Hg22 mi
6:00 AM62 °FSunny.2 mph90%30.08 "Hg16 mi
4:00 AM64 °FOvercast.1 mph93%30.07 "Hg9 mi
3:00 AM65 °FOvercast.1 mph95%30.07 "Hg4 mi
1:00 AM65 °FOvercast.3 mph89%30.07 "Hg9 mi
12:00 AM65 °FOvercast.1 mph93%30.07 "Hg4 mi
10:00 PM
Fri, Jul 22
67 °FPassing clouds.1 mph91%30.08 "Hg5 mi
9:00 PM66 °FPartly sunny.1 mph88%30.05 "Hg14 mi
Weather by CustomWeather, © 2016

See weather overviewHow to use our weather pages